Flag for Finland Weather past 2 weeks in Kemi, Finland

Now
36 °F

Scattered clouds.


Feels Like: 31 °F
Forecast: 30 / 42 °F
Wind: 6 mph from Northwest

Location: Kemi Airport

Current Time: May 3, 2015 at 10:09:55 PM

Latest Report: May 3, 2015 at 9:20 PM


Visibility: N/A

Pressure: 29.80 "Hg

Humidity: 87%

Dew point: 32 °F

Location of KemiLocation

Historic Weather in Kemi — Graph

°F

Kemi temperature yesterday

Maximum temperature yesterday: 50 °F (at 12:50 PM)
Minimum temperature yesterday: 34 °F (at 4:50 AM)
Average temperature yesterday: 42 °F

Past Weeks' High & Low Weather Summary

 TemperatureHumidityPressure
High52 °F (Apr 21, 3:20 PM)100% (Apr 23, 10:50 PM)30.07 "Hg (Apr 23, 10:50 PM)
Low19 °F (Apr 26, 4:50 AM)29% (Apr 26, 6:20 PM)29.18 "Hg (Apr 23, 4:20 AM)
Average38 °F69%29.74 "Hg
* Reported Apr 18 8:20 PM — May 3 8:50 PM, Kemi, Weather by CustomWeather, © 2015

Note: Actual official high and low records may vary slightly from our data, if they occured in-between our weather recording intervals... More about our weather records

Advertising

Kemi weather history for previous 24 hours

 ConditionsComfort  
Time TempWeatherWind HumidityBarometerVisibility
8:50 PM
Sun, May 3
36 °FPartly sunny.7 mph87%29.77 "HgN/A
8:20 PM36 °FMore clouds than sun.7 mph93%29.77 "HgN/A
7:50 PM36 °FSprinkles. Overcast.7 mph93%29.77 "HgN/A
7:20 PM36 °FSprinkles. Low clouds.7 mph93%29.77 "HgN/A
6:50 PM36 °FSprinkles. Low clouds.8 mph93%29.74 "HgN/A
6:20 PM36 °FSprinkles. Overcast.7 mph93%29.74 "HgN/A
5:50 PM37 °FSprinkles. Overcast.8 mph87%29.74 "HgN/A
5:20 PM37 °FSprinkles. Overcast.10 mph81%29.71 "HgN/A
4:50 PM39 °FPartly sunny.9 mph70%29.71 "HgN/A
4:20 PM37 °FPartly sunny.12 mph75%29.71 "HgN/A
3:50 PM39 °FPartly sunny.10 mph81%29.68 "HgN/A
3:29 PM39 °FPartly sunny.8 mph75%29.68 "HgN/A
2:50 PM39 °FSprinkles. Overcast.10 mph81%29.68 "HgN/A
2:20 PM37 °FSprinkles. Overcast.12 mph81%29.65 "HgN/A
1:50 PM37 °FOvercast.12 mph81%29.65 "HgN/A
1:20 PM37 °FOvercast.12 mph81%29.65 "HgN/A
12:50 PM37 °FPartly sunny.10 mph81%29.65 "HgN/A
12:20 PM37 °FOvercast.12 mph87%29.62 "HgN/A
11:50 AM37 °FSprinkles. Overcast.10 mph87%29.62 "HgN/A
11:20 AM37 °FOvercast.12 mph87%29.62 "HgN/A
10:50 AM37 °FLow clouds.10 mph87%29.62 "HgN/A
10:20 AM36 °FLow clouds.10 mph93%29.62 "HgN/A
9:50 AM36 °FLow clouds.10 mph93%29.62 "HgN/A
9:20 AM36 °FLight rain. Low clouds.9 mph93%29.62 "HgN/A
8:50 AM36 °FPartly sunny.10 mph93%29.62 "HgN/A
8:20 AM36 °FPartly sunny.9 mph93%29.62 "HgN/A
7:50 AM36 °FLight rain. Mostly cloudy.12 mph93%29.59 "HgN/A
7:20 AM36 °FLight rain. Mostly cloudy.12 mph93%29.62 "HgN/A
6:50 AM36 °FLight rain. Low clouds.10 mph93%29.62 "HgN/A
6:20 AM34 °FLight rain. Low clouds.8 mph100%29.62 "Hg5 mi
5:50 AM34 °FLight rain. Mostly cloudy.9 mph100%29.59 "HgN/A
5:20 AM34 °FLight rain. Mostly cloudy.8 mph100%29.62 "Hg5 mi
4:50 AM34 °FLight rain. Mostly cloudy.8 mph100%29.62 "HgN/A
4:20 AM34 °FSprinkles. Mostly cloudy.8 mph100%29.62 "HgN/A
3:50 AM36 °FOvercast.9 mph93%29.62 "HgN/A
3:20 AM36 °FLight rain. Passing clouds.7 mph93%29.62 "HgN/A
2:50 AM36 °FDrizzle. Overcast.8 mph93%29.62 "HgN/A
2:20 AM36 °FLight rain. Overcast.6 mph93%29.62 "HgN/A
1:50 AM36 °FLight rain. Overcast.6 mph93%29.65 "HgN/A
1:20 AM36 °FLight rain. Overcast.6 mph93%29.65 "HgN/A
12:50 AM37 °FLight rain. Mostly cloudy.3 mph87%29.65 "HgN/A
11:50 PM
Sat, May 2
39 °FOvercast.5 mph70%29.65 "HgN/A
11:20 PM39 °FPassing clouds.7 mph65%29.65 "HgN/A
10:50 PM39 °FBroken clouds.9 mph65%29.65 "HgN/A
10:20 PM39 °FOvercast.8 mph65%29.65 "HgN/A
Weather by CustomWeather, © 2015

See weather overviewHow to use our weather pages